Probability
0 0 0 0 0 0 0 0 0 0 0 0 0 0 0 0 0 0 0 0 0 0 0 0 0 0 0 0 0 0 0 0 0 0 0 0 0 0 0 0 0 0 0
0 0 0 0 0 0 0 0 0 0 0 0 0 0 0 0 0 0 0 0 0 0 0 0 0 0 0 0 0 0 0 0 0 0 0 0 0 0 0 0 0 0 0
0 0 0 0 0 0 0 0 0 0 0 0 0 0 0 0 0 0 0 0 0 0 0 0 0 0 0 0 0 0 0 0 0 0 0 0 0 0 0 0 0 0 0
0 0 0 0 0 0 0 0 0 0 0 0 0 0 0 0 0 0 0 0 0 0 0 0 0 0 0 0 0 0 0 0 0 0 0 0 0 0 0 0 0 0 0
0 0 0 0 0 0 0 0 0 0 0 0 0 0 0 0 0 0 0 0 0 0 0 0 0 0 0 0 0 0 0 0 0 0 0 0 0 0 0 0 0 0 0
0 0 0 0 0 0 0 0 0 0 0 0 0 0 0 0 0 0 0 0 0 0 0 0 0 0 0 0 0 0 0 0 0 0 0 0 0 0 0 0 0 0 0
0 0 0 0 0 0 0 0 0 0 0 0 0 0 0 0 0 0 0 0 0 0 0 0 0 0 0 0 0 0 0 0 0 0 0 0 0 0 0 0 0 0 0
0 0 0 0 0 0 0 0 0 0 0 0 0 0 0 0 0 0 0 0 0 0 0 0 0 0 0 0 0 0 0 0 0 0 0 0 0 0 0 0 0 0 0
0 0 0 0 0 0 0 0 0 0 0 0 0 0 0 0 0 0 0 0 0 0 0 0 0 0 0 0 0 0 0 0 0 0 0 0 0 0 0 0 0 0 0
0 0 0 0 0 0 0 0 0 0 0 0 0 0 0 0 0 0 0 0 0 0 0 0 0 0 0 0 0 0 0 0 0 0 0 0 0 0 0 0 1 2 3
0 0 0 0 0 0 0 0 0 0 0 0 0 0 0 0 0 0 0 0 0 0 0 0 0 0 0 0 0 0 0 0 0 0 0 0 0 0 0 0 2 4 6
0 0 0 0 0 0 0 0 0 0 0 0 0 0 0 0 0 0 0 0 0 0 0 0 0 0 0 0 0 0 0 0 0 0 0 0 0 0 0 0 2 4 6
0 0 0 0 0 0 0 0 0 0 0 0 0 0 0 0 0 0 0 0 0 0 0 0 0 0 0 0 0 0 0 0 0 0 0 0 0 0 0 0 1 1 2
0 0 0 0 0 0 0 0 0 0 0 0 0 0 0 0 0 0 0 0 0 0 0 0 0 0 0 0 0 0 0 0 0 0 0 0 0 0 0 0 0 0 0
0 0 0 0 0 0 0 0 0 0 0 0 0 0 0 0 0 0 0 0 0 0 0 0 0 0 0 0 0 0 0 0 0 0 0 0 0 0 0 0 0 0 0
0 0 0 0 0 0 0 0 0 0 0 0 0 0 0 0 0 0 0 0 0 0 0 0 0 0 0 0 0 0 0 0 0 0 0 0 0 0 0 0 0 0 0
0 0 0 0 0 0 0 0 0 0 0 0 0 0 0 0 0 0 0 0 0 0 0 0 0 0 0 0 0 0 0 0 0 0 0 0 0 0 0 0 0 0 0
0 0 0 0 0 0 0 0 0 0 0 0 0 0 0 0 0 0 0 0 0 0 0 0 0 0 0 0 0 0 0 0 0 0 0 0 0 0 0 0 0 0 0
0 0 0 0 0 0 0 0 0 0 0 0 0 0 0 0 0 0 0 0 0 0 0 0 0 0 0 0 0 0 0 0 0 0 0 0 0 0 0 0 0 0 0
0 0 0 0 0 0 0 0 0 0 0 0 0 0 0 0 0 0 0 0 0 0 0 0 0 0 0 0 0 0 0 0 0 0 0 0 0 0 0 0 0 0 0
0 0 0 0 0 0 0 0 0 0 0 0 0 0 0 0 0 0 0 0 0 0 0 0 0 0 0 0 0 0 0 0 0 0 0 0 0 0 0 0 0 0 0
0 0 0 0 0 0 0 0 0 0 0 0 0 0 0 0 0 0 0 0 0 0 0 0 0 0 0 0 0 0 0 0 0 0 0 0 0 0 0 0 0 0 0
0 0 0 0 0 0 0 0 0 0 0 0 0 0 0 0 0 0 0 0 0 0 0 0 0 0 0 0 0 0 0 0 0 0 0 0 0 0 0 0 0 0 0
0 0 0 0 0 0 0 0 0 0 0 0 0 0 0 0 0 0 0 0 0 0 0 0 0 0 0 0 0 0 0 0 0 0 0 0 0 0 0 0 0 0 0
0 0 0 0 0 0 0 0 0 0 0 0 0 0 0 0 0 0 0 0 0 0 0 0 0 0 0 0 0 0 0 0 0 0 0 0 0 0 0 0 0 0 0
0 0 0 0 0 0 0 0 0 0 0 0 0 0 0 0 0 0 0 0 0 0 0 0 0 0 0 0 0 0 0 0 0 0 0 0 0 0 0 0 0 0 0
Wind_Speed
3 2 1 1 1 1 2 2 3 4 4 5 5 5 5 5 5 4 4 10 14 15 16 16 16 15 15 16 16 16 16 16 17 17 18 19 21 24 26 27 28 28 28
4 3 4 4 4 4 4 4 5 4 4 4 6 6 6 6 5 6 5 7 12 14 16 17 18 18 19 19 18 18 18 18 19 19 19 20 20 21 22 25 27 29 30
6 5 5 5 4 4 5 5 5 4 5 6 6 7 5 5 6 6 5 4 5 10 16 19 20 20 20 20 21 21 21 21 21 21 21 21 21 20 21 21 22 25 28
8 7 6 5 4 4 4 4 4 4 5 5 5 5 5 5 6 5 4 4 4 5 10 18 20 20 21 21 22 22 22 22 22 23 23 23 23 22 22 21 21 21 22
8 7 5 4 5 5 5 4 4 3 4 5 6 5 5 4 4 4 5 5 5 5 5 12 18 20 21 22 22 23 23 23 24 24 24 24 25 24 24 24 23 22 22
8 7 5 6 5 5 5 4 4 3 2 4 5 6 6 4 2 3 5 5 5 7 7 9 9 13 20 22 23 24 25 25 25 25 25 25 25 26 26 25 25 25 24
8 7 5 5 5 5 5 5 3 4 3 4 4 5 6 4 3 3 5 5 6 8 9 10 8 7 8 18 22 25 25 25 25 26 26 26 26 27 27 27 26 26 26
7 7 6 5 5 4 5 6 5 3 3 3 2 3 5 6 5 7 5 3 6 7 8 10 8 7 6 6 15 25 24 25 26 27 27 27 27 28 28 28 28 28 28
7 7 6 5 5 4 4 4 4 3 3 3 2 2 3 4 5 4 3 3 5 6 6 6 8 7 9 7 8 14 23 26 27 28 29 29 29 29 29 30 30 30 29
7 6 6 5 4 4 4 3 3 2 2 2 3 1 1 3 4 6 5 4 6 6 6 8 7 7 8 7 10 17 23 26 28 29 30 30 30 30 30 31 31 31 31
6 6 5 5 4 3 3 4 3 3 2 2 2 2 2 3 4 5 8 6 6 5 6 6 6 6 7 7 5 13 25 28 29 30 30 30 30 30 31 31 31 31 32
4 5 4 4 3 3 3 3 3 4 3 3 3 3 2 3 4 5 9 11 9 6 7 6 7 7 6 6 10 23 27 28 29 30 31 31 31 31 31 31 32 32 32
2 2 3 3 3 3 3 3 3 4 3 4 4 3 3 3 4 5 10 13 14 8 5 5 6 5 7 5 8 22 24 28 29 30 32 33 33 33 33 33 32 32 32
1 1 2 3 3 4 4 4 3 3 3 4 6 4 3 4 4 5 7 12 16 9 5 6 4 5 5 5 11 23 14 26 29 31 33 34 34 33 33 33 32 31 31
1 2 2 3 4 4 4 4 3 5 4 4 4 4 3 4 5 5 6 7 10 17 16 7 5 5 5 6 14 11 10 21 30 32 33 34 34 33 33 33 32 32 32
2 2 3 3 4 4 4 4 5 5 5 5 3 4 5 5 5 5 6 6 7 12 17 10 9 7 8 11 18 12 11 27 29 31 33 34 33 33 33 33 33 33 34
2 3 3 4 5 5 5 5 6 6 6 6 5 6 6 7 6 6 7 7 8 9 15 17 12 9 9 10 11 8 10 10 13 27 32 33 33 33 33 34 34 35 35
2 3 4 4 5 6 6 6 7 7 7 7 7 6 7 8 8 8 7 8 9 10 13 19 16 13 12 11 11 10 12 12 10 24 30 32 33 34 35 35 35 35 35
3 4 4 5 6 6 7 7 7 7 7 7 7 7 8 8 10 9 10 11 10 11 10 14 17 14 12 10 11 13 12 10 13 18 25 28 30 33 34 34 35 35 34
3 4 5 5 6 7 7 7 7 7 7 7 7 7 8 9 11 11 11 10 11 12 12 13 14 13 12 10 10 12 14 8 11 13 18 22 26 30 32 33 34 34 34
4 4 5 6 6 6 7 10 8 7 7 7 7 7 9 15 20 17 15 13 14 13 13 14 14 14 13 11 12 12 16 14 11 10 11 11 12 12 15 23 28 31 33
4 5 5 6 7 8 17 20 16 8 7 7 8 8 10 13 18 24 27 27 25 19 17 15 14 15 16 14 13 14 16 16 15 7 9 13 11 13 12 11 24 32 33
4 5 6 6 7 10 19 21 21 12 7 7 8 9 11 13 19 12 20 25 22 26 26 18 16 16 17 17 17 18 16 17 17 13 13 16 11 14 13 16 30 33 34
4 4 6 7 7 10 19 20 22 10 8 8 9 10 11 11 14 20 17 16 14 13 17 14 13 14 15 15 15 17 17 17 15 12 11 16 14 14 15 13 26 33 34
4 5 6 7 7 9 17 20 21 8 8 9 9 9 12 12 23 29 20 17 14 12 19 24 25 24 29 29 23 14 13 13 15 14 9 11 14 14 14 15 18 29 31
5 6 6 6 7 8 15 20 21 7 8 9 8 8 16 21 27 28 17 12 14 16 15 14 16 19 17 17 22 14 12 13 14 13 8 7 12 12 12 9 9 10 15
Wind_Direction
145 124 99 65 29 19 22 21 14 12 10 2 359 353 342 339 337 335 328 332 340 346 346 341 336 334 333 330 327 323 318 313 308 303 299 290 279 270 263 258 255 253 251
113 92 70 55 42 36 40 43 31 26 15 4 356 348 342 344 344 342 339 347 0 11 17 18 14 9 3 357 350 346 340 337 332 327 320 312 305 297 286 274 265 259 255
87 81 68 55 42 38 43 42 26 27 19 6 349 339 339 344 343 341 346 360 1 15 18 17 12 7 1 356 350 347 343 340 337 334 329 324 318 311 304 298 289 279 269
83 79 71 58 46 44 38 39 24 18 12 357 338 325 328 333 338 346 4 6 2 8 13 13 9 2 356 351 347 343 340 337 333 329 325 321 316 312 308 304 300 295 290
80 81 73 59 52 49 36 31 30 22 6 349 326 314 316 323 329 3 6 1 4 10 13 5 4 356 353 350 348 343 338 334 330 325 321 318 314 309 305 302 300 298 296
74 77 70 55 51 50 35 24 18 12 1 339 321 313 303 307 324 359 358 358 2 9 9 1 358 350 351 349 345 339 334 329 325 321 318 315 312 308 303 299 296 294 292
68 67 65 54 50 53 41 27 12 6 351 348 342 320 315 328 346 331 351 355 2 3 358 352 347 339 340 343 340 333 329 326 323 319 316 313 311 308 304 299 296 292 289
63 68 65 59 50 51 40 32 26 10 342 1 348 324 332 332 341 334 319 341 358 350 338 335 327 325 330 328 327 328 326 324 320 316 313 310 306 304 302 299 296 294 291
66 66 64 63 54 52 39 25 27 26 341 325 347 37 1 312 309 298 315 344 337 320 316 318 313 321 318 320 315 319 322 320 317 314 310 307 305 302 299 297 295 293 291
67 64 62 59 52 46 34 9 23 1 347 331 330 22 237 248 295 309 306 305 303 306 298 302 303 297 298 300 303 317 318 317 314 309 307 305 302 299 297 296 294 293 291
61 60 59 53 42 31 18 6 357 352 342 323 317 308 294 266 237 265 293 302 303 291 288 283 282 284 288 290 292 309 317 313 309 307 304 302 300 298 296 295 294 293 292
52 46 53 45 32 16 358 349 344 342 333 327 316 307 304 300 304 288 294 303 298 287 280 278 283 286 289 295 307 315 312 309 307 305 303 300 298 297 296 295 294 292 290
65 37 41 31 14 352 344 347 342 332 326 328 312 298 290 283 291 301 306 308 304 296 262 253 258 271 290 296 303 306 305 305 304 303 301 298 297 296 295 292 290 288 287
123 67 40 20 2 352 348 346 332 318 321 314 315 308 298 295 297 299 301 308 309 301 284 271 256 251 265 270 281 299 297 298 299 299 297 295 294 293 290 288 286 286 286
101 56 29 8 353 346 339 334 313 303 302 297 296 297 296 291 293 289 291 295 301 306 305 293 284 257 260 266 283 288 278 291 296 296 296 294 291 288 286 285 285 286 286
62 35 11 356 343 333 324 314 301 293 294 294 288 295 294 294 295 292 289 289 285 290 296 301 297 284 278 289 292 289 279 292 296 297 295 293 291 289 288 287 286 286 286
47 18 353 340 329 317 310 303 295 295 293 291 291 298 293 299 300 300 294 289 286 285 291 298 298 296 283 279 285 269 274 274 282 293 295 294 293 292 291 289 288 287 286
23 354 337 327 318 312 305 299 295 302 293 288 286 289 294 308 305 301 296 291 289 282 285 295 301 301 294 289 290 285 293 293 287 292 293 292 292 292 291 290 288 286 284
357 338 330 322 314 309 304 297 290 288 283 280 281 283 290 300 302 300 296 292 289 291 288 292 296 297 295 295 298 295 291 285 287 290 292 292 291 290 289 288 287 286 285
343 334 328 320 314 310 302 296 294 291 287 282 276 276 283 291 295 297 297 292 298 299 295 292 293 296 298 296 295 301 300 287 286 289 287 287 288 290 289 288 287 286 284
344 335 330 324 321 316 315 320 312 306 301 293 284 279 286 303 308 308 307 308 305 300 300 300 299 301 302 304 303 301 299 299 286 281 283 282 283 279 280 282 283 281 279
340 339 332 323 321 328 329 331 331 319 311 306 303 299 297 304 305 313 312 308 306 306 305 302 302 302 304 303 301 300 301 301 299 288 282 288 283 281 278 272 276 279 279
335 330 323 318 312 316 333 335 332 334 327 315 307 304 308 310 313 299 299 305 306 304 305 304 302 301 301 303 303 302 299 298 297 300 296 291 285 282 280 279 283 282 281
324 315 309 307 309 319 335 334 333 339 316 303 297 295 297 300 305 309 307 308 304 304 303 302 294 296 300 301 299 300 299 297 292 288 285 288 290 285 285 280 281 280 279
313 303 299 303 307 313 328 330 332 313 304 300 293 295 305 305 307 314 317 314 314 308 310 309 310 309 309 309 308 306 303 301 299 296 288 282 287 289 284 279 276 278 278
295 299 300 301 300 299 315 327 328 308 306 307 302 294 310 315 315 321 323 321 317 312 315 318 314 309 305 301 307 305 300 296 296 296 287 279 289 297 293 268 261 270 275